Time,TemperatureF,DewpointF,PressureIn,WindDirection,WindDirectionDegrees,WindSpeedMPH,WindSpeedGustMPH,Humidity,HourlyPrecipIn,Conditions,Clouds,dailyrainin,SoftwareType,DateUTC
2013-04-25 00:01:00,50.5,50.2,29.68,NE,45,2.0,6.0,99,0.01,,,0.18,meteohub,2013-04-25 04:01:00,
2013-04-25 00:02:00,50.5,50.2,29.68,SE,135,2.0,6.0,99,0.01,,,0.18,meteohub,2013-04-25 04:02:00,
2013-04-25 00:06:00,50.4,50.0,29.68,West,270,1.0,5.0,99,0.01,,,0.00,meteohub,2013-04-25 04:06:00,
2013-04-25 00:12:00,50.4,50.0,29.68,North,0,4.0,5.0,99,0.01,,,0.00,meteohub,2013-04-25 04:12:00,
2013-04-25 00:18:00,50.2,49.8,29.68,SE,135,1.0,4.0,99,0.01,,,0.00,meteohub,2013-04-25 04:18:00,
2013-04-25 00:24:00,50.2,49.8,29.68,South,180,3.0,4.0,99,0.01,,,0.00,meteohub,2013-04-25 04:24:00,
2013-04-25 00:30:00,50.0,49.6,29.68,NE,45,3.0,4.0,99,0.01,,,0.00,meteohub,2013-04-25 04:30:00,
2013-04-25 00:37:00,50.0,49.6,29.68,SW,225,1.0,4.0,99,0.01,,,0.00,meteohub,2013-04-25 04:37:00,
2013-04-25 00:43:00,50.0,49.6,29.68,NE,45,3.0,3.0,99,0.00,,,0.00,meteohub,2013-04-25 04:43:00,
2013-04-25 00:49:00,49.8,49.5,29.68,NE,45,6.0,6.0,99,0.00,,,0.00,meteohub,2013-04-25 04:49:00,
2013-04-25 00:55:00,49.6,49.5,29.68,NE,45,1.0,8.0,99,0.00,,,0.00,meteohub,2013-04-25 04:55:00,
2013-04-25 01:02:00,49.5,49.3,29.68,South,180,1.0,8.0,99,0.00,,,0.00,meteohub,2013-04-25 05:02:00,
2013-04-25 01:08:00,48.9,48.7,29.68,North,0,2.0,8.0,99,0.00,,,0.00,meteohub,2013-04-25 05:08:00,
2013-04-25 01:14:00,48.6,48.4,29.68,West,270,2.0,7.0,99,0.00,,,0.00,meteohub,2013-04-25 05:14:00,
2013-04-25 01:21:00,48.2,48.0,29.68,SW,225,0.0,4.0,99,0.00,,,0.00,meteohub,2013-04-25 05:21:00,
2013-04-25 01:27:00,48.0,47.8,29.68,SE,135,1.0,4.0,99,0.00,,,0.00,meteohub,2013-04-25 05:27:00,
2013-04-25 01:33:00,47.7,47.5,29.68,NE,45,1.0,4.0,99,0.00,,,0.00,meteohub,2013-04-25 05:33:00,
2013-04-25 01:39:00,47.5,47.3,29.68,NW,315,2.0,4.0,99,0.00,,,0.00,meteohub,2013-04-25 05:39:00,
2013-04-25 01:45:00,47.3,47.1,29.68,SE,135,0.0,3.0,99,0.00,,,0.00,meteohub,2013-04-25 05:45:00,
2013-04-25 01:51:00,47.1,46.9,29.68,North,0,2.0,3.0,99,0.00,,,0.00,meteohub,2013-04-25 05:51:00,
2013-04-25 01:58:00,46.9,46.8,29.68,NW,315,0.0,3.0,99,0.00,,,0.00,meteohub,2013-04-25 05:58:00,
2013-04-25 02:04:00,46.9,46.8,29.68,SW,225,2.0,3.0,99,0.00,,,0.00,meteohub,2013-04-25 06:04:00,
2013-04-25 02:10:00,46.8,46.6,29.68,SW,225,5.0,5.0,99,0.00,,,0.00,meteohub,2013-04-25 06:10:00,
2013-04-25 02:16:00,46.2,45.5,29.68,South,180,5.0,12.0,97,0.00,,,0.00,meteohub,2013-04-25 06:16:00,
2013-04-25 02:22:00,46.0,45.3,29.68,SW,225,3.0,12.0,97,0.00,,,0.00,meteohub,2013-04-25 06:22:00,
2013-04-25 02:28:00,45.7,45.0,29.68,North,0,1.0,12.0,97,0.00,,,0.00,meteohub,2013-04-25 06:28:00,
2013-04-25 02:34:00,45.5,44.8,29.68,SW,225,3.0,7.0,97,0.00,,,0.00,meteohub,2013-04-25 06:34:00,
2013-04-25 02:40:00,45.1,44.4,29.67,NW,315,2.0,7.0,97,0.00,,,0.00,meteohub,2013-04-25 06:40:00,
2013-04-25 02:47:00,44.8,44.1,29.67,North,0,2.0,3.0,97,0.00,,,0.00,meteohub,2013-04-25 06:47:00,
2013-04-25 02:53:00,44.8,44.1,29.67,SW,225,8.0,8.0,97,0.00,,,0.00,meteohub,2013-04-25 06:53:00,
2013-04-25 13:11:00,70.0,70.0,29.79,South,180,8.0,11.0,0,0.00,,,0.00,meteohub,2013-04-25 17:11:00,
2013-04-25 13:17:00,72.1,72.1,29.79,NE,45,4.0,11.0,0,0.00,,,0.00,meteohub,2013-04-25 17:17:00,
2013-04-25 13:22:00,74.8,74.8,29.79,East,90,2.0,11.0,0,0.00,,,0.00,meteohub,2013-04-25 17:22:00,
2013-04-25 13:28:00,75.0,75.0,29.79,SE,135,14.0,14.0,0,0.00,,,0.00,meteohub,2013-04-25 17:28:00,
2013-04-25 13:34:00,68.9,68.9,29.79,NW,315,10.0,16.0,0,0.00,,,0.00,meteohub,2013-04-25 17:34:00,
2013-04-25 13:40:00,68.7,68.7,29.79,North,0,9.0,19.0,0,0.00,,,0.00,meteohub,2013-04-25 17:40:00,
2013-04-25 13:46:00,68.7,68.7,29.79,South,180,10.0,15.0,0,0.00,,,0.00,meteohub,2013-04-25 17:46:00,
2013-04-25 13:53:00,70.9,70.9,29.79,South,180,11.0,15.0,0,0.00,,,0.00,meteohub,2013-04-25 17:53:00,
2013-04-25 13:59:00,69.1,69.1,29.80,NE,45,4.0,13.0,0,0.00,,,0.00,meteohub,2013-04-25 17:59:00,
2013-04-25 14:05:00,67.1,67.1,29.79,SSW,203,13.0,17.0,0,0.00,,,0.00,meteohub,2013-04-25 18:05:00,
2013-04-25 14:11:00,66.9,66.9,29.79,South,180,9.0,17.0,0,0.00,,,0.00,meteohub,2013-04-25 18:11:00,
2013-04-25 14:17:00,68.2,68.2,29.80,South,180,3.0,17.0,0,0.00,,,0.00,meteohub,2013-04-25 18:17:00,
2013-04-25 14:22:00,70.3,70.3,29.79,SW,225,8.0,13.0,0,0.00,,,0.00,meteohub,2013-04-25 18:22:00,
2013-04-25 14:28:00,68.4,68.4,29.79,South,180,17.0,17.0,0,0.00,,,0.00,meteohub,2013-04-25 18:28:00,
2013-04-25 14:35:00,69.1,69.1,29.79,ENE,68,3.0,17.0,0,0.00,,,0.00,meteohub,2013-04-25 18:35:00,
2013-04-25 14:41:00,69.6,69.6,29.80,South,180,16.0,17.0,0,0.00,,,0.00,meteohub,2013-04-25 18:41:00,
2013-04-25 14:47:00,68.2,68.2,29.80,South,180,13.0,17.0,0,0.00,,,0.00,meteohub,2013-04-25 18:47:00,
2013-04-25 14:53:00,70.3,70.3,29.80,South,180,14.0,17.0,0,0.00,,,0.00,meteohub,2013-04-25 18:53:00,
2013-04-25 14:59:00,70.2,70.2,29.80,NE,45,4.0,17.0,0,0.00,,,0.00,meteohub,2013-04-25 18:59:00,
2013-04-25 15:05:00,72.0,72.0,29.79,NE,45,2.0,15.0,0,0.00,,,0.00,meteohub,2013-04-25 19:05:00,
2013-04-25 15:12:00,71.8,71.8,29.79,South,180,8.0,17.0,0,0.00,,,0.00,meteohub,2013-04-25 19:12:00,
2013-04-25 15:17:00,69.4,69.4,29.79,South,180,16.0,17.0,0,0.00,,,0.00,meteohub,2013-04-25 19:17:00,
2013-04-25 15:22:00,67.1,67.1,29.80,NNE,23,3.0,16.0,0,0.00,,,0.00,meteohub,2013-04-25 19:22:00,
2013-04-25 15:28:00,69.3,69.3,29.79,South,180,6.0,16.0,0,0.00,,,0.00,meteohub,2013-04-25 19:28:00,
2013-04-25 15:35:00,68.5,68.5,29.79,SSW,203,17.0,17.0,0,0.00,,,0.00,meteohub,2013-04-25 19:35:00,
2013-04-25 15:41:00,69.1,69.1,29.79,North,0,7.0,18.0,0,0.00,,,0.00,meteohub,2013-04-25 19:41:00,
2013-04-25 15:47:00,71.2,71.2,29.79,West,270,8.0,18.0,0,0.00,,,0.00,meteohub,2013-04-25 19:47:00,
2013-04-25 15:52:00,72.0,72.0,29.78,South,180,4.0,17.0,0,0.00,,,0.00,meteohub,2013-04-25 19:52:00,
2013-04-25 15:58:00,73.4,73.4,29.79,South,180,15.0,15.0,0,0.00,,,0.00,meteohub,2013-04-25 19:58:00,
2013-04-25 16:04:00,68.9,68.9,29.78,South,180,11.0,21.0,0,0.00,,,0.00,meteohub,2013-04-25 20:04:00,
2013-04-25 16:10:00,68.9,68.9,29.78,SW,225,5.0,21.0,0,0.00,,,0.00,meteohub,2013-04-25 20:10:00,
2013-04-25 16:16:00,70.7,70.7,29.78,SW,225,8.0,14.0,0,0.00,,,0.00,meteohub,2013-04-25 20:16:00,
2013-04-25 16:22:00,71.4,71.4,29.78,NE,45,3.0,14.0,0,0.00,,,0.00,meteohub,2013-04-25 20:22:00,
2013-04-25 16:29:00,73.9,73.9,29.78,South,180,4.0,8.0,0,0.00,,,0.00,meteohub,2013-04-25 20:29:00,
2013-04-25 16:35:00,74.1,74.1,29.78,SSW,203,6.0,8.0,0,0.00,,,0.00,meteohub,2013-04-25 20:35:00,
2013-04-25 16:41:00,71.4,71.4,29.78,South,180,6.0,7.0,0,0.00,,,0.00,meteohub,2013-04-25 20:41:00,
2013-04-25 16:47:00,69.4,69.4,29.78,West,270,2.0,14.0,0,0.00,,,0.00,meteohub,2013-04-25 20:47:00,
2013-04-25 16:52:00,71.4,71.4,29.78,South,180,2.0,14.0,0,0.00,,,0.00,meteohub,2013-04-25 20:52:00,
2013-04-25 16:58:00,72.0,72.0,29.78,East,90,2.0,14.0,0,0.00,,,0.00,meteohub,2013-04-25 20:58:00,
2013-04-25 17:04:00,67.5,67.5,29.78,South,180,11.0,11.0,0,0.00,,,0.00,meteohub,2013-04-25 21:04:00,
2013-04-25 17:11:00,65.3,65.3,29.78,South,180,5.0,16.0,0,0.00,,,0.00,meteohub,2013-04-25 21:11:00,
2013-04-25 17:17:00,63.3,5.7,29.78,NW,315,6.0,16.0,10,0.00,,,0.00,meteohub,2013-04-25 21:17:00,
2013-04-25 17:22:00,62.6,5.2,29.78,South,180,4.0,11.0,10,0.00,,,0.00,meteohub,2013-04-25 21:22:00,
2013-04-25 17:28:00,61.9,6.8,29.78,SW,225,6.0,11.0,11,0.00,,,0.00,meteohub,2013-04-25 21:28:00,
2013-04-25 17:34:00,61.7,8.6,29.78,North,0,7.0,10.0,12,0.00,,,0.00,meteohub,2013-04-25 21:34:00,
2013-04-25 17:40:00,61.7,8.6,29.79,South,180,4.0,9.0,12,0.00,,,0.00,meteohub,2013-04-25 21:40:00,
2013-04-25 17:47:00,61.2,8.1,29.79,East,90,2.0,10.0,12,0.00,,,0.00,meteohub,2013-04-25 21:47:00,
2013-04-25 17:53:00,61.2,8.1,29.79,East,90,2.0,10.0,12,0.00,,,0.00,meteohub,2013-04-25 21:53:00,
2013-04-25 17:59:00,61.2,8.1,29.79,NE,45,2.0,10.0,12,0.00,,,0.00,meteohub,2013-04-25 21:59:00,
2013-04-25 18:05:00,60.8,7.9,29.79,SE,135,3.0,8.0,12,0.00,,,0.00,meteohub,2013-04-25 22:05:00,
2013-04-25 18:12:00,60.3,9.1,29.79,East,90,4.0,8.0,13,0.00,,,0.00,meteohub,2013-04-25 22:12:00,
2013-04-25 18:17:00,59.9,9.0,29.79,SW,225,4.0,8.0,13,0.00,,,0.00,meteohub,2013-04-25 22:17:00,
2013-04-25 18:22:00,60.1,9.1,29.79,West,270,3.0,8.0,13,0.00,,,0.00,meteohub,2013-04-25 22:22:00,
2013-04-25 18:29:00,60.1,9.1,29.80,NE,45,4.0,8.0,13,0.00,,,0.00,meteohub,2013-04-25 22:29:00,
2013-04-25 18:35:00,59.9,9.0,29.80,North,0,3.0,9.0,13,0.00,,,0.00,meteohub,2013-04-25 22:35:00,
2013-04-25 18:41:00,59.7,8.8,29.80,NW,315,3.0,9.0,13,0.00,,,0.00,meteohub,2013-04-25 22:41:00,
2013-04-25 18:47:00,59.5,8.6,29.80,SW,225,4.0,7.0,13,0.00,,,0.00,meteohub,2013-04-25 22:47:00,
2013-04-25 18:53:00,59.0,8.2,29.81,East,90,3.0,8.0,13,0.00,,,0.00,meteohub,2013-04-25 22:53:00,
2013-04-25 18:59:00,58.6,9.5,29.80,South,180,4.0,11.0,14,0.00,,,0.00,meteohub,2013-04-25 22:59:00,
2013-04-25 19:05:00,58.3,9.3,29.81,NW,315,3.0,11.0,14,0.00,,,0.00,meteohub,2013-04-25 23:05:00,
2013-04-25 19:11:00,57.9,9.0,29.81,NW,315,5.0,5.0,14,0.00,,,0.00,meteohub,2013-04-25 23:11:00,
2013-04-25 19:17:00,57.7,8.8,29.81,North,0,2.0,7.0,14,0.00,,,0.00,meteohub,2013-04-25 23:17:00,
2013-04-25 19:22:00,57.2,8.4,29.81,NE,45,2.0,7.0,14,0.00,,,0.00,meteohub,2013-04-25 23:22:00,
2013-04-25 19:29:00,56.8,9.7,29.81,East,90,2.0,7.0,15,0.00,,,0.00,meteohub,2013-04-25 23:29:00,
2013-04-25 19:35:00,56.5,9.3,29.81,NE,45,2.0,5.0,15,0.00,,,0.00,meteohub,2013-04-25 23:35:00,
2013-04-25 19:41:00,55.9,9.0,29.81,South,180,2.0,6.0,15,0.00,,,0.00,meteohub,2013-04-25 23:41:00,
2013-04-25 19:47:00,55.2,5.2,29.81,NE,45,1.0,6.0,13,0.00,,,0.00,meteohub,2013-04-25 23:47:00,
2013-04-25 19:52:00,54.9,5.0,29.81,East,90,1.0,3.0,13,0.00,,,0.00,meteohub,2013-04-25 23:52:00,
2013-04-25 19:58:00,53.8,4.1,29.81,North,0,2.0,3.0,13,0.00,,,0.00,meteohub,2013-04-25 23:58:00,
2013-04-25 20:04:00,52.5,6.3,29.81,NW,315,3.0,3.0,15,0.00,,,0.00,meteohub,2013-04-26 00:04:00,
2013-04-25 20:11:00,51.4,8.1,29.81,NW,315,2.0,3.0,17,0.00,,,0.00,meteohub,2013-04-26 00:11:00,
2013-04-25 20:17:00,50.5,8.6,29.81,North,0,2.0,3.0,18,0.00,,,0.00,meteohub,2013-04-26 00:17:00,
2013-04-25 20:23:00,49.8,9.1,29.81,North,0,2.0,3.0,19,0.00,,,0.00,meteohub,2013-04-26 00:23:00,
2013-04-25 20:29:00,48.9,9.5,29.81,South,180,2.0,3.0,20,0.00,,,0.00,meteohub,2013-04-26 00:29:00,
2013-04-25 20:35:00,47.7,11.7,29.81,South,180,0.0,3.0,23,0.00,,,0.00,meteohub,2013-04-26 00:35:00,
2013-04-25 20:41:00,46.2,11.5,29.82,South,180,0.0,2.0,24,0.00,,,0.00,meteohub,2013-04-26 00:41:00,
2013-04-25 20:47:00,45.5,10.8,29.82,South,180,0.0,1.0,24,0.00,,,0.00,meteohub,2013-04-26 00:47:00,
2013-04-25 20:52:00,44.6,13.5,29.82,South,180,0.0,0.0,28,0.00,,,0.00,meteohub,2013-04-26 00:52:00,
2013-04-25 20:58:00,44.1,14.5,29.82,NE,45,0.0,1.0,30,0.00,,,0.00,meteohub,2013-04-26 00:58:00,
2013-04-25 21:04:00,43.5,14.2,29.82,South,180,0.0,2.0,30,0.00,,,0.00,meteohub,2013-04-26 01:04:00,
2013-04-25 21:11:00,42.6,20.5,29.83,North,0,0.0,2.0,41,0.00,,,0.00,meteohub,2013-04-26 01:11:00,
2013-04-25 21:17:00,42.1,21.2,29.83,SW,225,0.0,1.0,43,0.00,,,0.00,meteohub,2013-04-26 01:17:00,
2013-04-25 21:22:00,41.5,22.3,29.83,SW,225,0.0,2.0,46,0.00,,,0.00,meteohub,2013-04-26 01:22:00,
2013-04-25 21:28:00,41.2,21.9,29.83,SW,225,0.0,2.0,46,0.00,,,0.00,meteohub,2013-04-26 01:28:00,
2013-04-25 21:34:00,40.5,21.7,29.83,South,180,2.0,2.0,47,0.00,,,0.00,meteohub,2013-04-26 01:34:00,
2013-04-25 21:40:00,40.1,23.0,29.83,NE,45,0.0,2.0,50,0.00,,,0.00,meteohub,2013-04-26 01:40:00,
2013-04-25 21:46:00,39.6,23.0,29.84,South,180,1.0,2.0,51,0.00,,,0.00,meteohub,2013-04-26 01:46:00,
2013-04-25 21:53:00,38.7,23.4,29.84,South,180,0.0,2.0,54,0.00,,,0.00,meteohub,2013-04-26 01:53:00,
2013-04-25 21:59:00,37.9,23.7,29.84,North,0,0.0,2.0,56,0.00,,,0.00,meteohub,2013-04-26 01:59:00,
2013-04-25 22:05:00,37.4,23.2,29.84,SW,225,0.0,2.0,56,0.00,,,0.00,meteohub,2013-04-26 02:05:00,
2013-04-25 22:11:00,37.4,23.5,29.85,NE,45,0.0,2.0,57,0.00,,,0.00,meteohub,2013-04-26 02:11:00,
2013-04-25 22:17:00,37.6,23.7,29.85,SW,225,0.0,2.0,57,0.00,,,0.00,meteohub,2013-04-26 02:17:00,
2013-04-25 22:22:00,37.0,22.5,29.85,North,0,0.0,2.0,55,0.00,,,0.00,meteohub,2013-04-26 02:22:00,
2013-04-25 22:28:00,36.5,23.2,29.85,South,180,0.0,2.0,58,0.00,,,0.00,meteohub,2013-04-26 02:28:00,
2013-04-25 22:34:00,36.1,21.9,29.86,East,90,1.0,1.0,56,0.00,,,0.00,meteohub,2013-04-26 02:34:00,
2013-04-25 22:41:00,35.8,22.1,29.85,SW,225,0.0,1.0,57,0.00,,,0.00,meteohub,2013-04-26 02:41:00,
2013-04-25 22:47:00,35.4,23.0,29.86,North,0,0.0,1.0,60,0.00,,,0.00,meteohub,2013-04-26 02:47:00,
2013-04-25 22:52:00,35.1,22.6,29.86,South,180,2.0,2.0,60,0.00,,,0.00,meteohub,2013-04-26 02:52:00,
2013-04-25 22:58:00,34.9,23.2,29.86,North,0,0.0,2.0,62,0.00,,,0.00,meteohub,2013-04-26 02:58:00,
2013-04-25 23:03:00,34.7,23.4,29.87,North,0,0.0,2.0,63,0.00,,,0.00,meteohub,2013-04-26 03:03:00,
2013-04-25 23:09:00,34.2,22.8,29.86,SW,225,0.0,2.0,63,0.00,,,0.00,meteohub,2013-04-26 03:09:00,
2013-04-25 23:15:00,33.8,23.7,29.87,North,0,0.0,2.0,66,0.00,,,0.00,meteohub,2013-04-26 03:15:00,
2013-04-25 23:22:00,33.3,23.5,29.87,South,180,0.0,2.0,67,0.00,,,0.00,meteohub,2013-04-26 03:22:00,
2013-04-25 23:28:00,33.1,23.4,29.87,SW,225,1.0,1.0,67,0.00,,,0.00,meteohub,2013-04-26 03:28:00,
2013-04-25 23:34:00,33.1,24.4,29.87,North,0,0.0,1.0,70,0.00,,,0.00,meteohub,2013-04-26 03:34:00,
2013-04-25 23:40:00,32.9,24.3,29.87,South,180,0.0,2.0,70,0.00,,,0.00,meteohub,2013-04-26 03:40:00,
2013-04-25 23:46:00,32.9,24.3,29.87,SW,225,1.0,2.0,70,0.00,,,0.00,meteohub,2013-04-26 03:46:00,
2013-04-25 23:52:00,32.5,24.3,29.87,North,0,0.0,2.0,71,0.00,,,0.00,meteohub,2013-04-26 03:52:00,
2013-04-25 23:59:00,32.2,24.3,29.88,North,0,0.0,2.0,72,0.00,,,0.00,meteohub,2013-04-26 03:59:00,